Wind_Speed
7 4 2 2 4 5 3 3 3 3 2 3 4 4 5 4 4 4 4 4 3 3 3 4 4 5 6 6 6 6 6 7 6 7 7 8 9 9 7 7 6 5 4
3 2 2 1 4 3 3 4 4 4 2 2 2 2 2 2 1 0 2 2 2 2 2 3 2 2 2 2 2 2 2 3 3 4 5 7 8 8 9 7 5 4 3
2 4 3 4 4 3 2 2 3 3 3 3 3 2 2 2 2 2 2 3 4 3 3 2 3 2 2 2 1 1 2 3 3 3 4 5 6 7 8 10 8 4 2
2 3 4 5 5 3 4 4 3 3 3 3 4 4 4 4 4 4 4 4 5 5 5 4 5 5 5 4 4 4 4 5 5 6 5 3 5 7 7 10 11 9 4
6 2 0 3 4 4 2 2 3 3 3 4 5 7 7 6 5 5 5 5 6 7 6 5 6 7 7 7 7 6 7 7 8 10 8 4 6 7 7 9 11 11 8
6 4 2 2 2 4 4 4 4 4 5 5 7 8 9 7 7 7 7 7 7 7 8 6 7 8 9 9 10 10 10 11 12 15 10 7 7 8 9 8 9 10 9
4 3 3 1 2 4 6 6 7 8 7 7 9 9 9 9 9 8 9 9 9 9 9 9 9 9 9 11 12 12 12 14 16 16 13 10 10 10 8 10 7 8 8
7 4 2 2 3 5 5 6 8 11 11 10 11 11 11 11 12 11 11 11 11 12 11 11 12 11 10 11 12 14 15 16 16 19 13 13 13 12 9 8 9 5 7
10 9 6 8 7 7 7 8 9 12 13 13 13 14 14 13 14 13 14 14 15 15 15 13 15 13 13 13 14 15 15 17 19 23 16 14 15 13 11 9 10 8 6
11 11 14 14 15 14 14 13 13 14 16 15 15 15 16 16 16 16 17 18 18 19 18 17 18 17 16 16 17 17 16 18 20 24 21 17 17 14 13 12 11 10 8
14 16 17 20 19 20 20 20 19 19 20 19 18 17 18 19 20 21 20 19 20 20 21 21 22 21 19 20 21 20 20 19 22 23 24 20 18 18 15 14 13 11 10
22 22 23 23 26 25 25 26 26 25 24 23 23 22 22 23 24 24 23 23 22 23 24 25 26 25 23 23 23 23 23 22 24 27 25 25 19 20 18 15 14 13 12
10 10 21 29 30 29 29 29 29 27 27 28 27 26 25 28 29 28 27 26 25 26 27 28 29 27 25 26 24 24 24 26 27 30 27 28 24 22 21 18 17 16 15
28 26 22 29 29 37 29 31 30 29 30 31 29 29 30 30 31 32 31 29 29 28 28 28 30 29 28 29 28 27 26 27 29 32 30 30 29 25 25 22 19 19 19
26 26 27 32 32 36 32 29 33 29 29 31 33 34 33 33 34 33 33 35 32 33 32 32 28 29 30 31 30 32 29 29 27 34 34 33 33 27 28 26 23 21 21
27 27 26 29 32 32 32 30 29 34 34 32 32 32 33 36 36 33 34 35 36 35 35 36 31 32 32 32 34 35 34 32 28 40 38 39 38 30 30 29 26 24 23
30 31 29 29 30 31 33 34 33 33 36 39 38 36 36 36 37 38 37 38 39 39 40 40 38 35 36 37 36 35 37 35 34 43 45 43 40 35 31 31 30 28 26
30 33 33 32 32 32 33 35 36 33 38 39 42 44 42 43 41 39 40 42 42 43 44 44 44 40 38 41 40 38 38 39 40 45 51 47 45 43 36 35 34 31 28
30 31 31 27 25 25 26 29 30 33 39 41 44 43 44 48 46 43 46 44 45 46 48 48 50 48 43 40 42 42 42 42 46 47 56 54 47 47 44 38 36 34 32
26 26 27 26 27 28 24 23 25 27 32 36 38 42 44 44 45 43 47 49 49 50 50 51 53 53 49 43 41 45 43 46 43 53 52 57 51 48 48 40 38 38 36
25 23 24 23 20 22 24 26 26 25 25 28 33 36 40 42 45 48 47 50 52 56 55 53 52 54 53 48 43 43 48 42 41 43 48 51 46 41 48 48 42 40 38
23 23 25 25 28 29 28 32 33 35 37 34 36 36 39 40 41 45 42 48 49 51 53 58 55 55 56 54 49 45 48 46 47 40 40 53 53 45 51 45 49 43 40
31 29 31 30 31 35 36 37 37 35 37 42 48 46 44 42 42 41 43 47 52 51 49 60 59 61 56 58 58 57 57 56 50 47 44 41 44 50 50 45 49 51 46
34 36 30 31 31 32 35 35 36 38 42 48 52 49 51 50 45 45 46 41 49 47 52 57 55 59 64 60 63 76 52 60 47 47 51 51 44 48 54 51 53 53 53
33 38 39 33 34 36 38 41 46 50 59 53 53 54 58 60 56 47 48 44 45 48 48 45 56 45 51 52 53 48 49 64 61 48 46 46 45 56 58 46 42 47 52
37 41 41 42 44 49 53 56 57 56 56 54 54 56 61 58 55 56 51 51 47 51 47 41 53 47 47 51 55 53 54 46 52 55 52 43 42 46 45 48 48 49 49
Wind_Direction
64 358 321 321 322 305 258 243 240 225 166 139 133 140 130 122 105 87 78 80 88 83 71 58 56 55 64 66 70 66 58 54 51 40 39 35 22 16 28 41 46 40 34
6 321 289 208 303 270 253 238 242 247 242 199 154 147 153 152 135 87 50 22 14 15 17 18 9 22 51 68 61 70 67 51 37 30 26 23 20 17 3 12 38 48 35
251 260 270 239 239 197 191 208 231 256 266 264 247 221 212 205 250 271 302 333 345 324 316 311 291 290 274 235 228 276 302 323 321 333 6 8 10 13 356 343 344 14 18
301 244 241 251 201 205 185 184 211 229 263 270 265 250 248 236 245 270 288 308 331 330 308 292 272 263 265 268 268 271 280 285 296 297 322 346 343 347 351 338 329 320 313
351 105 311 178 202 202 202 225 243 258 265 273 271 261 251 250 254 272 282 297 307 315 309 290 276 269 267 268 269 268 277 280 283 283 304 323 320 333 335 341 329 317 296
28 58 191 191 216 220 243 275 270 257 255 259 260 260 259 264 268 268 277 290 296 302 303 294 284 280 277 275 274 274 275 274 275 287 297 302 300 316 323 335 332 318 294
357 40 57 18 299 283 282 273 265 262 262 262 264 262 263 260 260 267 276 284 288 292 294 286 283 286 285 279 275 271 271 270 271 281 294 286 288 300 313 323 335 320 297
313 323 312 302 297 301 299 286 269 261 257 254 254 256 257 259 260 262 268 271 275 278 278 277 277 277 278 279 275 269 265 269 272 271 275 278 277 288 297 311 317 309 289
307 303 293 287 285 290 287 292 286 274 270 264 261 260 257 255 258 258 260 262 265 266 267 270 272 275 275 272 270 268 268 267 267 272 273 266 267 276 285 294 303 294 269
291 286 300 298 296 294 288 279 279 278 278 276 273 268 266 263 262 262 259 257 258 262 264 265 267 267 267 267 267 265 261 261 264 268 275 266 265 264 268 281 288 276 259
284 282 285 289 287 289 289 282 274 270 269 269 272 274 272 267 263 262 264 263 263 264 265 264 264 264 263 263 264 265 263 259 259 262 269 269 261 262 260 271 281 268 253
318 312 299 286 282 282 283 282 276 265 262 265 266 269 273 275 272 271 268 268 267 266 263 261 260 260 261 261 264 266 268 263 258 255 264 267 259 257 256 262 271 265 246
214 251 294 300 286 279 277 274 274 266 263 262 264 266 268 270 272 271 270 268 269 269 268 265 265 265 263 262 263 268 266 264 259 259 261 262 261 255 253 254 261 253 238
261 252 262 274 287 294 283 281 271 273 268 264 264 264 265 267 269 270 270 270 266 266 266 265 264 266 264 264 261 263 263 265 262 262 259 256 257 251 248 248 252 256 242
265 259 255 258 269 283 290 284 276 273 268 267 267 266 263 266 270 270 270 271 265 262 261 262 263 265 263 262 260 260 260 260 264 259 254 250 251 248 243 243 246 247 245
277 274 267 264 266 273 281 282 276 275 274 265 263 264 265 267 268 268 267 266 267 263 262 262 260 262 264 260 258 258 259 256 256 257 255 254 253 245 241 241 243 243 241
276 277 276 272 271 273 274 279 279 274 268 268 268 264 260 261 260 264 265 264 264 263 265 263 261 258 259 258 258 256 258 258 251 253 254 253 255 248 242 235 238 237 241
279 281 282 284 282 277 272 270 267 270 267 268 268 267 264 260 261 263 260 263 265 264 264 265 265 260 258 259 259 259 258 256 253 253 256 254 254 255 250 236 236 234 239
280 282 285 285 285 285 285 281 277 275 276 275 273 270 266 264 261 258 259 261 260 261 262 261 263 264 259 255 258 260 256 255 261 262 255 253 256 256 247 238 234 235 238
288 288 290 292 292 289 285 279 281 281 282 282 279 277 273 269 264 262 261 259 260 261 259 258 260 262 260 256 255 257 260 251 258 254 249 253 250 255 250 238 234 236 237
299 298 298 299 296 292 299 293 288 289 295 300 295 288 281 276 269 264 262 261 253 257 260 259 258 257 258 254 250 248 253 250 244 246 241 251 248 252 253 240 232 234 233
298 299 302 303 305 302 304 300 297 296 291 292 293 292 288 284 280 271 263 264 260 257 258 259 255 255 254 254 247 243 244 246 245 248 236 237 243 250 251 237 233 230 231
302 301 300 296 293 295 299 297 291 288 290 291 300 291 284 284 283 285 267 267 266 258 266 263 261 251 249 253 249 236 238 246 247 238 231 232 238 246 241 236 239 228 232
292 293 288 282 281 283 288 288 289 287 285 284 283 275 272 273 269 267 265 259 262 265 269 259 270 270 257 254 254 251 249 248 243 237 234 231 242 240 223 240 248 243 235
296 296 303 299 300 305 301 291 287 285 291 284 277 274 276 280 280 272 267 263 253 252 253 258 259 255 260 268 269 265 255 241 251 232 247 230 232 225 233 242 232 232 234
293 299 305 307 307 304 300 299 298 293 287 280 275 274 277 281 284 283 276 272 265 270 270 258 261 256 256 251 258 259 254 258 264 239 234 228 238 237 243 239 232 234 236
Height
3166 3167 3167 3167 3168 3167 3166 3166 3167 3169 3171 3172 3173 3174 3175 3177 3178 3179 3180 3181 3182 3183 3184 3185 3185 3186 3186 3186 3185 3186 3186 3186 3187 3187 3187 3186 3186 3186 3185 3184 3183 3183 3184
3168 3167 3167 3167 3167 3166 3166 3167 3167 3169 3170 3171 3173 3174 3176 3177 3178 3179 3180 3182 3183 3184 3185 3186 3186 3186 3186 3186 3187 3187 3187 3187 3187 3187 3187 3187 3186 3186 3186 3185 3184 3184 3184
3167 3166 3166 3166 3166 3165 3166 3167 3168 3169 3171 3172 3173 3175 3176 3177 3178 3179 3180 3182 3183 3184 3185 3185 3186 3186 3186 3186 3187 3187 3187 3187 3187 3187 3188 3188 3187 3186 3186 3186 3186 3184 3184
3164 3165 3165 3165 3166 3166 3166 3167 3168 3169 3170 3172 3173 3174 3175 3176 3177 3179 3180 3182 3183 3184 3184 3185 3185 3185 3186 3187 3187 3187 3187 3187 3187 3187 3187 3188 3188 3187 3186 3186 3187 3186 3185
3162 3163 3164 3165 3167 3168 3168 3168 3168 3169 3170 3171 3172 3174 3174 3175 3177 3179 3180 3181 3182 3182 3183 3183 3184 3184 3185 3186 3187 3187 3187 3187 3186 3186 3186 3188 3188 3188 3187 3186 3186 3186 3186
3163 3165 3165 3166 3168 3168 3168 3169 3169 3168 3169 3170 3171 3172 3173 3174 3176 3177 3178 3179 3180 3181 3181 3181 3182 3183 3184 3185 3186 3187 3187 3186 3185 3185 3186 3187 3187 3187 3187 3186 3185 3185 3185
3164 3165 3166 3167 3168 3168 3168 3168 3168 3168 3168 3169 3170 3171 3171 3172 3173 3174 3176 3177 3178 3179 3179 3179 3180 3181 3183 3184 3184 3185 3185 3184 3184 3183 3186 3186 3187 3186 3186 3186 3184 3184 3185
3163 3165 3165 3166 3167 3167 3167 3167 3167 3167 3167 3168 3168 3169 3170 3171 3171 3172 3173 3174 3175 3176 3176 3177 3178 3179 3180 3181 3182 3182 3182 3182 3182 3180 3182 3184 3184 3185 3185 3184 3184 3182 3183
3162 3162 3164 3164 3165 3165 3165 3165 3165 3165 3165 3166 3166 3167 3167 3168 3169 3170 3170 3171 3172 3172 3173 3174 3175 3177 3177 3178 3179 3179 3180 3179 3178 3177 3181 3181 3183 3183 3183 3183 3182 3182 3182
3161 3161 3161 3162 3162 3162 3163 3163 3162 3162 3162 3163 3163 3163 3164 3165 3166 3166 3166 3166 3167 3168 3169 3170 3171 3172 3173 3174 3174 3175 3176 3176 3176 3173 3177 3180 3181 3181 3181 3182 3181 3180 3181
3159 3159 3159 3159 3159 3159 3159 3159 3159 3159 3158 3158 3159 3160 3160 3160 3160 3161 3162 3163 3164 3165 3165 3166 3167 3168 3169 3170 3171 3171 3172 3173 3172 3171 3173 3176 3177 3178 3179 3180 3180 3179 3179
3155 3154 3155 3155 3154 3155 3155 3154 3154 3154 3154 3154 3155 3155 3156 3156 3156 3157 3158 3158 3159 3160 3160 3161 3162 3163 3165 3165 3167 3168 3169 3169 3169 3167 3169 3171 3173 3174 3175 3177 3177 3177 3178
3153 3150 3149 3146 3148 3149 3150 3149 3148 3150 3150 3149 3150 3151 3152 3152 3151 3153 3153 3154 3155 3155 3155 3156 3156 3158 3159 3160 3162 3163 3165 3165 3165 3163 3165 3166 3169 3170 3171 3173 3174 3174 3174
3151 3149 3145 3144 3141 3139 3143 3141 3143 3143 3144 3144 3145 3145 3145 3145 3146 3146 3147 3148 3148 3150 3149 3150 3150 3152 3154 3154 3157 3157 3159 3160 3161 3157 3159 3161 3164 3165 3167 3169 3170 3172 3172
3144 3144 3144 3140 3139 3137 3138 3139 3136 3138 3139 3139 3139 3139 3139 3139 3139 3140 3141 3141 3143 3143 3143 3142 3145 3146 3147 3148 3150 3151 3153 3154 3157 3151 3152 3154 3157 3160 3162 3164 3166 3167 3170
3135 3136 3137 3136 3135 3134 3133 3133 3133 3131 3132 3134 3134 3134 3133 3133 3133 3134 3134 3132 3132 3134 3134 3135 3139 3140 3141 3142 3141 3143 3145 3148 3150 3141 3145 3146 3149 3154 3156 3159 3161 3163 3165
3128 3127 3128 3128 3129 3130 3127 3127 3127 3126 3125 3125 3126 3127 3127 3126 3127 3127 3128 3127 3127 3125 3125 3125 3128 3132 3133 3134 3134 3136 3137 3140 3142 3133 3136 3139 3143 3147 3150 3152 3156 3157 3160
3121 3120 3120 3122 3122 3121 3119 3118 3117 3117 3116 3115 3116 3118 3119 3118 3118 3121 3121 3120 3121 3123 3119 3117 3117 3122 3125 3124 3127 3129 3129 3131 3133 3129 3126 3131 3136 3141 3145 3146 3149 3150 3153
3116 3114 3113 3115 3114 3114 3114 3112 3112 3111 3108 3108 3107 3106 3107 3108 3109 3109 3109 3109 3111 3110 3109 3108 3107 3108 3111 3114 3118 3119 3121 3123 3124 3122 3117 3119 3126 3130 3137 3139 3141 3144 3147
3110 3108 3106 3107 3108 3106 3106 3104 3104 3103 3102 3100 3098 3096 3097 3098 3097 3099 3099 3099 3100 3099 3097 3098 3099 3100 3099 3100 3105 3108 3110 3111 3115 3111 3109 3110 3117 3122 3126 3131 3134 3137 3140
3105 3104 3102 3102 3101 3100 3101 3099 3099 3097 3095 3094 3092 3090 3089 3087 3088 3088 3086 3087 3087 3088 3088 3087 3088 3088 3093 3093 3093 3095 3096 3099 3101 3103 3103 3103 3106 3111 3115 3120 3125 3130 3132
3099 3099 3098 3098 3097 3093 3094 3090 3090 3088 3086 3085 3083 3082 3079 3077 3076 3076 3075 3073 3072 3076 3075 3075 3072 3074 3078 3080 3082 3083 3081 3086 3086 3091 3092 3094 3096 3101 3104 3111 3114 3120 3124
3091 3094 3093 3090 3087 3085 3085 3083 3081 3078 3076 3074 3073 3070 3069 3068 3065 3063 3064 3064 3062 3060 3060 3059 3056 3058 3056 3061 3064 3064 3062 3068 3075 3078 3081 3084 3087 3088 3092 3100 3104 3107 3115
3081 3081 3086 3084 3081 3079 3077 3075 3073 3068 3065 3065 3061 3056 3052 3051 3051 3049 3047 3048 3048 3048 3045 3047 3043 3034 3032 3042 3045 3029 3042 3057 3061 3066 3072 3073 3076 3077 3081 3088 3093 3098 3105
3074 3069 3068 3071 3072 3069 3064 3063 3061 3057 3052 3047 3044 3041 3037 3034 3034 3035 3032 3032 3031 3031 3032 3030 3037 3031 3031 3034 3038 3039 3039 3039 3043 3050 3060 3061 3067 3067 3072 3076 3080 3087 3095
3068 3064 3064 3060 3058 3056 3053 3048 3040 3035 3033 3031 3029 3026 3022 3021 3019 3016 3020 3018 3020 3018 3017 3015 3018 3022 3023 3027 3028 3030 3030 3030 3032 3034 3044 3052 3058 3062 3066 3067 3070 3075 3085